Regional Weather Roundup
Issued by NWS Little Rock, AR

Home | Current Version | Previous Version | Graphics & Text | Print | Product List | Glossary On
Versions: 1 2 3 4 5 6 7 8 9 10 11 12 13 14 15 16 17 18 19 20 21 22 23 24 25 26 27 28 29 30 31 32 33 34 35 36 37 38 39 40 41 42 43 44 45 46 47 48 49 50
000
ASUS44 KLZK 290105
RWRLZK

WEATHER ROUNDUP FOR ARKANSAS
NATIONAL WEATHER SERVICE LITTLE ROCK AR
800 PM CDT TUE MAR 28 2017

NOTE: "FAIR" INDICATES FEW OR NO CLOUDS BELOW 12,000 FEET WITH NO
SIGNIFICANT WEATHER AND/OR OBSTRUCTIONS TO VISIBILITY.

ARZ001-003-010-029-290200-
NORTHWEST ARKANSAS

CITY           SKY/WX    TMP DP  RH WIND       PRES   REMARKS
FAYETTEVILLE   CLOUDY    69  58  67 SE7       29.88R
FORT SMITH     CLOUDY    73  58  59 E16       29.84R
HARRISON       MOCLDY    65  53  65 E9        29.94R
BENTONVILLE    CLOUDY    68  54  60 E10       29.89R
ROGERS         MOCLDY    67  54  63 E13G20    29.89R
SILOAM SPGS    CLOUDY    70  54  56 E6        29.86S
HIGHFILL       CLOUDY    69  55  60 E10       29.87S
SPRINGDALE     CLOUDY    72  57  60 SE12      29.89R
$$

ARZ004-005-016-290200-
NORTH CENTRAL ARKANSAS

CITY           SKY/WX    TMP DP  RH WIND       PRES   REMARKS
BATESVILLE     CLOUDY    64  55  72 E9        29.99R
FLIPPIN        CLOUDY    66  48  52 E7        29.94R
MTN HOME       MOCLDY    64  51  62 SE7       29.96R
$$

ARZ040-041-290200-
WEST CENTRAL ARKANSAS

CITY           SKY/WX    TMP DP  RH WIND       PRES   REMARKS
MENA           CLOUDY    73  68  83 E6        29.86R
MOUNT IDA      PTCLDY    72  61  68 E3        29.84R
$$

ARZ009-017-025-026-028-290200-
NORTHEAST ARKANSAS

CITY           SKY/WX    TMP DP  RH WIND       PRES   REMARKS
CORNING        CLOUDY    59  54  82 E14       30.02R
JONESBORO      CLEAR     61  55  81 NE10      29.99R
NEWPORT        CLEAR     63  58  83 NE10      29.98R
WALNUT RIDGE   MOCLDY    61  52  72 NE14      30.01R
BLYTHEVILLE    CLEAR     61  57  87 NE9       30.00R
$$

ARZ022-023-033-042-044-290200-
CENTRAL ARKANSAS

CITY           SKY/WX    TMP DP  RH WIND       PRES   REMARKS
LITTLE ROCK    MOCLDY    68  61  78 NE12      29.91R
N LITTLE ROCK    N/A     68  60  75 E10G18    29.92R
JACKSONVILLE   CLEAR     68  60  75 NE12      29.91R
CONWAY           N/A     68  59  73 E13       29.89S
SEARCY         PTCLDY    66  60  81 NE10      29.96R
HOT SPRINGS    CLEAR     72  62  71 E12       29.86F
RUSSELLVILLE   CLEAR     69  57  65 E9        29.89R
CLINTON        MOCLDY    66  57  72 VRB3      29.93F
$$

ARZ036-290200-
EAST ARKANSAS

CITY           SKY/WX    TMP DP  RH WIND       PRES   REMARKS
WEST MEMPHIS   CLEAR     67  59  75 N9        29.93S
$$

ARZ050-053-066-070-073-290200-
SOUTHWEST ARKANSAS

CITY           SKY/WX    TMP DP  RH WIND       PRES   REMARKS
ARKADELPHIA    FAIR      71  66  84 NE3       29.85S
CAMDEN         CLEAR     73  63  68 NE3       29.84R
TEXARKANA      MOCLDY    73  67  81 E3        29.81R
EL DORADO      CLEAR     73  64  73 E5        29.83S
DE QUEEN       CLOUDY    73  67  81 E8        29.80R
$$

ARZ056-057-069-290200-
SOUTHEAST ARKANSAS

CITY           SKY/WX    TMP DP  RH WIND       PRES   REMARKS
PINE BLUFF     MOCLDY    73  63  70 NE7       29.88R
STUTTGART      CLEAR     70  55  60 NE12      29.91R
MONTICELLO     CLEAR     75  63  66 SE3       29.87S

$$





USA.gov is the U.S. government's official web portal to all federal, state and local government web resources and services.